Regional Weather Roundup
Issued by NWS

Home | Current Version | Previous Version | Graphics & Text | Print | Product List | Glossary On
Versions: 1 2 3 4 5 6 7 8 9 10 11 12 13 14 15 16 17 18 19 20 21 22 23 24 25 26 27 28 29 30 31 32 33 34 35 36 37 38 39 40 41 42 43 44 45 46 47 48 49 50
355
ASUS45 KCYS 231010
RWRWY

WYOMING REGIONAL WEATHER ROUNDUP
NATIONAL WEATHER SERVICE CHEYENNE WY
400 AM MDT SUN JUL 23 2017

NOTE:  "FAIR" INDICATES FEW OR NO CLOUDS BELOW 12,000 FEET
WITH NO SIGNIFICANT WEATHER AND/OR OBSTRUCTIONS TO VISIBILITY.

WYZ001-231100-
YELLOWSTONE NATIONAL PARK

CITY           SKY/WX    TMP DP  RH WIND       PRES   REMARKS
LK YELLOWSTONE   N/A     40  35  83 CALM      30.40S
W YELLOWSTONE  NOT AVBL

$$
WYZ002>013-054>058-071-098>099-231100-
NORTHERN WYOMING

CITY           SKY/WX    TMP DP  RH WIND       PRES   REMARKS
JACKSON        FAIR      46  39  76 NE3       30.29S
CODY           FAIR      67  35  30 SW6       30.18F
GREYBULL       FAIR      61  40  45 SE3       30.09S
WORLAND        FAIR      60  34  37 S9        30.11S
SHERIDAN       FAIR      55  43  63 CALM      30.10F
BUFFALO        FAIR      64  32  30 W8        30.17F
GILLETTE       FAIR      57  38  48 CALM      30.13F
HULETT         FAIR      64  37  36 CALM      30.14F
NEWCASTLE      FAIR      61  36  39 NW6       30.14F

$$
WYZ014>020-022>026-101>103-231100-
CENTRAL WYOMING

CITY           SKY/WX    TMP DP  RH WIND       PRES   REMARKS
BIG PINEY      FAIR      46  35  65 NE3       30.31F
PINEDALE       FAIR      43  37  81 NW7       30.32S
DUBOIS         FAIR      50  32  50 NW8       30.33S
LANDER         FAIR      65  33  30 W10       30.21F
RIVERTON       FAIR      65  32  29 E6        30.20S
CASPER         FAIR      54  36  50 W5        30.19S
DOUGLAS        FAIR      58  52  80 CALM      30.17R

$$
WYZ021-027>030-104>119-231100-
SOUTHERN WYOMING

CITY           SKY/WX    TMP DP  RH WIND       PRES   REMARKS
EVANSTON       FAIR      63  33  32 E3        30.30F
KEMMERER         N/A     52  32  46 N10       30.32S
FORT BRIDGER   FAIR      62  29  27 SW6       30.31F
ROCK SPRINGS   FAIR      62  29  28 W6        30.26S
RAWLINS        FAIR      51  32  48 CALM      30.28S
SARATOGA       FAIR      57  36  44 SE9       30.31S
LARAMIE        FAIR      48  44  86 SW8       30.33S
CHEYENNE       FAIR      57  48  72 W7        30.24F
TORRINGTON     FAIR      64  52  64 SE9       30.10F
PINE BLUFFS    FAIR      54  48  82 CALM      30.20F

$$




USA.gov is the U.S. government's official web portal to all federal, state and local government web resources and services.